Year,Month,Day,Hour,Minute,Value (Times are PST for temperature in C)
2017,05,18,00,00,10.90
2017,05,18,00,01,10.90
2017,05,18,00,02,10.90
2017,05,18,00,03,10.90
2017,05,18,00,04,10.90
2017,05,18,00,05,10.90
2017,05,18,00,06,10.90
2017,05,18,00,07,10.90
2017,05,18,00,08,10.90
2017,05,18,00,09,10.90
2017,05,18,00,10,10.90
2017,05,18,00,11,10.90
2017,05,18,00,12,10.90
2017,05,18,00,13,10.90
2017,05,18,00,14,10.90
2017,05,18,00,15,10.90
2017,05,18,00,16,10.90
2017,05,18,00,17,10.90
2017,05,18,00,18,10.90
2017,05,18,00,19,10.90
2017,05,18,00,20,10.90
2017,05,18,00,21,10.90
2017,05,18,00,22,10.90
2017,05,18,00,23,10.90
2017,05,18,00,24,10.90
2017,05,18,00,25,10.90
2017,05,18,00,26,10.90
2017,05,18,00,27,10.80
2017,05,18,00,28,10.80
2017,05,18,00,29,10.80
2017,05,18,00,30,10.80
2017,05,18,00,31,10.80
2017,05,18,00,32,10.80
2017,05,18,00,33,10.80
2017,05,18,00,34,10.80
2017,05,18,00,35,10.80
2017,05,18,00,36,10.80
2017,05,18,00,37,10.80
2017,05,18,00,38,10.80
2017,05,18,00,39,10.80
2017,05,18,00,40,10.90
2017,05,18,00,41,10.90
2017,05,18,00,42,10.90
2017,05,18,00,43,10.90
2017,05,18,00,44,10.90
2017,05,18,00,45,10.90
2017,05,18,00,46,10.90
2017,05,18,00,47,10.90
2017,05,18,00,48,10.90
2017,05,18,00,49,10.90
2017,05,18,00,50,10.80
2017,05,18,00,51,10.80
2017,05,18,00,52,10.80
2017,05,18,00,53,10.80
2017,05,18,00,54,10.80
2017,05,18,00,55,10.80
2017,05,18,00,56,10.80
2017,05,18,00,57,10.80
2017,05,18,00,58,10.80
2017,05,18,00,59,10.80
2017,05,18,01,00,10.80
2017,05,18,01,01,10.80
2017,05,18,01,02,10.80
2017,05,18,01,03,10.70
2017,05,18,01,04,10.70
2017,05,18,01,05,10.70
2017,05,18,01,06,10.70
2017,05,18,01,07,10.70
2017,05,18,01,08,10.60
2017,05,18,01,09,10.60
2017,05,18,01,10,10.60
2017,05,18,01,11,10.60
2017,05,18,01,12,10.60
2017,05,18,01,13,10.60
2017,05,18,01,14,10.60
2017,05,18,01,15,10.50
2017,05,18,01,16,10.40
2017,05,18,01,17,10.40
2017,05,18,01,18,10.40
2017,05,18,01,19,10.40
2017,05,18,01,20,10.40
2017,05,18,01,21,10.40
2017,05,18,01,22,10.30
2017,05,18,01,23,10.30
2017,05,18,01,24,10.20
2017,05,18,01,25,10.20
2017,05,18,01,26,10.20
2017,05,18,01,27,10.20
2017,05,18,01,28,10.20
2017,05,18,01,29,10.20
2017,05,18,01,30,10.10
2017,05,18,01,31,10.10
2017,05,18,01,32,10.10
2017,05,18,01,33,10.10
2017,05,18,01,34,10.10
2017,05,18,01,35,10.10
2017,05,18,01,36,10.10
2017,05,18,01,37,10.10
2017,05,18,01,38,10.10
2017,05,18,01,39,10.10
2017,05,18,01,40,10.10
2017,05,18,01,41,10.10
2017,05,18,01,42,10.10
2017,05,18,01,43,10.10
2017,05,18,01,44,10.10
2017,05,18,01,45,10.10
2017,05,18,01,46,10.10
2017,05,18,01,47,10.10
2017,05,18,01,48,10.10
2017,05,18,01,49,10.10
2017,05,18,01,50,10.10
2017,05,18,01,51,10.10
2017,05,18,01,52,10.10
2017,05,18,01,53,10.10
2017,05,18,01,54,10.10
2017,05,18,01,55,10.10
2017,05,18,01,56,10.10
2017,05,18,01,57,10.10
2017,05,18,01,58,10.10
2017,05,18,01,59,10.10
2017,05,18,02,00,10.10
2017,05,18,02,01,10.10
2017,05,18,02,02,10.10
2017,05,18,02,03,10.10
2017,05,18,02,04,10.10
2017,05,18,02,05,10.10
2017,05,18,02,06,10.10
2017,05,18,02,07,10.10
2017,05,18,02,08,10.10
2017,05,18,02,09,10.10
2017,05,18,02,10,10.10
2017,05,18,02,11,10.10
2017,05,18,02,12,10.10
2017,05,18,02,13,10.10
2017,05,18,02,14,10.10
2017,05,18,02,15,10.10
2017,05,18,02,16,10.10
2017,05,18,02,17,10.10
2017,05,18,02,18,10.10
2017,05,18,02,19,10.10
2017,05,18,02,20,10.10
2017,05,18,02,21,10.10
2017,05,18,02,22,10.10
2017,05,18,02,23,10.00
2017,05,18,02,24,9.90
2017,05,18,02,25,9.90
2017,05,18,02,26,9.90
2017,05,18,02,27,9.90
2017,05,18,02,28,9.90
2017,05,18,02,29,9.90
2017,05,18,02,30,9.90
2017,05,18,02,31,9.90
2017,05,18,02,32,9.90
2017,05,18,02,33,9.90
2017,05,18,02,34,9.90
2017,05,18,02,35,9.90
2017,05,18,02,36,9.80
2017,05,18,02,37,9.80
2017,05,18,02,38,9.80
2017,05,18,02,39,9.70
2017,05,18,02,40,9.70
2017,05,18,02,41,9.70
2017,05,18,02,42,9.70
2017,05,18,02,43,9.70
2017,05,18,02,44,9.70
2017,05,18,02,45,9.70
2017,05,18,02,46,9.60
2017,05,18,02,47,9.60
2017,05,18,02,48,9.60
2017,05,18,02,49,9.60
2017,05,18,02,50,9.60
2017,05,18,02,51,9.60
2017,05,18,02,52,9.50
2017,05,18,02,53,9.50
2017,05,18,02,54,9.50
2017,05,18,02,55,9.50
2017,05,18,02,56,9.50
2017,05,18,02,57,9.40
2017,05,18,02,58,9.40
2017,05,18,02,59,9.40
2017,05,18,03,00,9.40
2017,05,18,03,01,9.40
2017,05,18,03,02,9.30
2017,05,18,03,03,9.30
2017,05,18,03,04,9.30
2017,05,18,03,05,9.30
2017,05,18,03,06,9.30
2017,05,18,03,07,9.20
2017,05,18,03,08,9.20
2017,05,18,03,09,9.20
2017,05,18,03,10,9.20
2017,05,18,03,11,9.20
2017,05,18,03,12,9.20
2017,05,18,03,13,9.20
2017,05,18,03,14,9.20
2017,05,18,03,15,9.10
2017,05,18,03,16,9.10
2017,05,18,03,17,9.10
2017,05,18,03,18,9.00
2017,05,18,03,19,9.00
2017,05,18,03,20,9.00
2017,05,18,03,21,9.00
2017,05,18,03,22,8.90
2017,05,18,03,23,8.90
2017,05,18,03,24,8.90
2017,05,18,03,25,8.90
2017,05,18,03,26,8.90
2017,05,18,03,27,8.90
2017,05,18,03,28,8.90
2017,05,18,03,29,8.80
2017,05,18,03,30,8.80
2017,05,18,03,31,8.80
2017,05,18,03,32,8.80
2017,05,18,03,33,8.80
2017,05,18,03,34,8.80
2017,05,18,03,35,8.70
2017,05,18,03,36,8.70
2017,05,18,03,37,8.70
2017,05,18,03,38,8.70
2017,05,18,03,39,8.70
2017,05,18,03,40,8.70
2017,05,18,03,41,8.70
2017,05,18,03,42,8.70
2017,05,18,03,43,8.60
2017,05,18,03,44,8.60
2017,05,18,03,45,8.60
2017,05,18,03,46,8.60
2017,05,18,03,47,8.50
2017,05,18,03,48,8.50
2017,05,18,03,49,8.50
2017,05,18,03,50,8.50
2017,05,18,03,51,8.50
2017,05,18,03,52,8.50
2017,05,18,03,53,8.50
2017,05,18,03,54,8.50
2017,05,18,03,55,8.50
2017,05,18,03,56,8.40
2017,05,18,03,57,8.40
2017,05,18,03,58,8.40
2017,05,18,03,59,8.40
2017,05,18,04,00,8.40
2017,05,18,04,01,8.40
2017,05,18,04,02,8.40
2017,05,18,04,03,8.40
2017,05,18,04,04,8.40
2017,05,18,04,05,8.40
2017,05,18,04,06,8.40
2017,05,18,04,07,8.40
2017,05,18,04,08,8.40
2017,05,18,04,09,8.40
2017,05,18,04,10,8.40
2017,05,18,04,11,8.40
2017,05,18,04,12,8.40
2017,05,18,04,13,8.40
2017,05,18,04,14,8.40
2017,05,18,04,15,8.40
2017,05,18,04,16,8.40
2017,05,18,04,17,8.40
2017,05,18,04,18,8.40
2017,05,18,04,19,8.30
2017,05,18,04,20,8.30
2017,05,18,04,21,8.30
2017,05,18,04,22,8.30
2017,05,18,04,23,8.30
2017,05,18,04,24,8.30
2017,05,18,04,25,8.30
2017,05,18,04,26,8.30
2017,05,18,04,27,8.30
2017,05,18,04,28,8.30
2017,05,18,04,29,8.30
2017,05,18,04,30,8.30
2017,05,18,04,31,8.30
2017,05,18,04,32,8.30
2017,05,18,04,33,8.30
2017,05,18,04,34,8.30
2017,05,18,04,35,8.20
2017,05,18,04,36,8.20
2017,05,18,04,37,8.20
2017,05,18,04,38,8.20
2017,05,18,04,39,8.20
2017,05,18,04,40,8.20
2017,05,18,04,41,8.20
2017,05,18,04,42,8.20
2017,05,18,04,43,8.20
2017,05,18,04,44,8.20
2017,05,18,04,45,8.20
2017,05,18,04,46,8.20
2017,05,18,04,47,8.20
2017,05,18,04,48,8.20
2017,05,18,04,49,8.20
2017,05,18,04,50,8.20
2017,05,18,04,51,8.20
2017,05,18,04,52,8.20
2017,05,18,04,53,8.20
2017,05,18,04,54,8.20
2017,05,18,04,55,8.20
2017,05,18,04,56,8.20
2017,05,18,04,57,8.20
2017,05,18,04,58,8.20
2017,05,18,04,59,8.20
2017,05,18,05,00,8.20
2017,05,18,05,01,8.20
2017,05,18,05,02,8.20
2017,05,18,05,03,8.20
2017,05,18,05,04,8.20
2017,05,18,05,05,8.20
2017,05,18,05,06,8.20
2017,05,18,05,07,8.20
2017,05,18,05,08,8.20
2017,05,18,05,09,8.20
2017,05,18,05,10,8.30
2017,05,18,05,11,8.30
2017,05,18,05,12,8.30
2017,05,18,05,13,8.30
2017,05,18,05,14,8.30
2017,05,18,05,15,8.30
2017,05,18,05,16,8.30
2017,05,18,05,17,8.40
2017,05,18,05,18,8.40
2017,05,18,05,19,8.40
2017,05,18,05,20,8.40
2017,05,18,05,21,8.40
2017,05,18,05,22,8.40
2017,05,18,05,23,8.40
2017,05,18,05,24,8.40
2017,05,18,05,25,8.40
2017,05,18,05,26,8.40
2017,05,18,05,27,8.40
2017,05,18,05,28,8.40
2017,05,18,05,29,8.50
2017,05,18,05,30,8.50
2017,05,18,05,31,8.50
2017,05,18,05,32,8.50
2017,05,18,05,33,8.50
2017,05,18,05,34,8.50
2017,05,18,05,35,8.50
2017,05,18,05,36,8.50
2017,05,18,05,37,8.50
2017,05,18,05,38,8.50
2017,05,18,05,39,8.50
2017,05,18,05,40,8.50
2017,05,18,05,41,8.50
2017,05,18,05,42,8.50
2017,05,18,05,43,8.50
2017,05,18,05,44,8.50
2017,05,18,05,45,8.50
2017,05,18,05,46,8.50
2017,05,18,05,47,8.50
2017,05,18,05,48,8.50
2017,05,18,05,49,8.50
2017,05,18,05,50,8.50
2017,05,18,05,51,8.50
2017,05,18,05,52,8.50
2017,05,18,05,53,8.50
2017,05,18,05,54,8.50
2017,05,18,05,55,8.50
2017,05,18,05,56,8.50
2017,05,18,05,57,8.50
2017,05,18,05,58,8.50
2017,05,18,05,59,8.50
2017,05,18,06,00,8.50
2017,05,18,06,01,8.50
2017,05,18,06,02,8.50
2017,05,18,06,03,8.50
2017,05,18,06,04,8.50
2017,05,18,06,05,8.60
2017,05,18,06,06,8.60
2017,05,18,06,07,8.60
2017,05,18,06,08,8.60
2017,05,18,06,09,8.60
2017,05,18,06,10,8.60
2017,05,18,06,11,8.60
2017,05,18,06,12,8.70
2017,05,18,06,13,8.70
2017,05,18,06,14,8.70
2017,05,18,06,15,8.70
2017,05,18,06,16,8.70
2017,05,18,06,17,8.70
2017,05,18,06,18,8.70
2017,05,18,06,19,8.70
2017,05,18,06,20,8.70
2017,05,18,06,21,8.70
2017,05,18,06,22,8.70
2017,05,18,06,23,8.70
2017,05,18,06,24,8.70
2017,05,18,06,25,8.70
2017,05,18,06,26,8.70
2017,05,18,06,27,8.70
2017,05,18,06,28,8.70
2017,05,18,06,29,8.70
2017,05,18,06,30,8.70
2017,05,18,06,31,8.70
2017,05,18,06,32,8.70
2017,05,18,06,33,8.70
2017,05,18,06,34,8.70
2017,05,18,06,35,8.70
2017,05,18,06,36,8.70
2017,05,18,06,37,8.70
2017,05,18,06,38,8.70
2017,05,18,06,39,8.70
2017,05,18,06,40,8.70
2017,05,18,06,41,8.70
2017,05,18,06,42,8.70
2017,05,18,06,43,8.70
2017,05,18,06,44,8.70
2017,05,18,06,45,8.70
2017,05,18,06,46,8.70
2017,05,18,06,47,8.70
2017,05,18,06,48,8.70
2017,05,18,06,49,8.70
2017,05,18,06,50,8.70
2017,05,18,06,51,8.70
2017,05,18,06,52,8.70
2017,05,18,06,53,8.70
2017,05,18,06,54,8.70
2017,05,18,06,55,8.70
2017,05,18,06,56,8.70
2017,05,18,06,57,8.70
2017,05,18,06,58,8.70
2017,05,18,06,59,8.80
2017,05,18,07,00,8.90
2017,05,18,07,01,8.90
2017,05,18,07,02,9.00
2017,05,18,07,03,9.00
2017,05,18,07,04,9.00
2017,05,18,07,05,9.10
2017,05,18,07,06,9.10
2017,05,18,07,07,9.10
2017,05,18,07,08,9.20
2017,05,18,07,09,9.20
2017,05,18,07,10,9.20
2017,05,18,07,11,9.20
2017,05,18,07,12,9.20
2017,05,18,07,13,9.30
2017,05,18,07,14,9.30
2017,05,18,07,15,9.30
2017,05,18,07,16,9.40
2017,05,18,07,17,9.40
2017,05,18,07,18,9.40
2017,05,18,07,19,9.50
2017,05,18,07,20,9.50
2017,05,18,07,21,9.50
2017,05,18,07,22,9.60
2017,05,18,07,23,9.60
2017,05,18,07,24,9.60
2017,05,18,07,25,9.60
2017,05,18,07,26,9.60
2017,05,18,07,27,9.60
2017,05,18,07,28,9.60
2017,05,18,07,29,9.60
2017,05,18,07,30,9.60
2017,05,18,07,31,9.70
2017,05,18,07,32,9.70
2017,05,18,07,33,9.70
2017,05,18,07,34,9.70
2017,05,18,07,35,9.70
2017,05,18,07,36,9.70
2017,05,18,07,37,9.70
2017,05,18,07,38,9.70
2017,05,18,07,39,9.70
2017,05,18,07,40,9.70
2017,05,18,07,41,9.80
2017,05,18,07,42,9.80
2017,05,18,07,43,9.90
2017,05,18,07,44,9.90
2017,05,18,07,45,10.00
2017,05,18,07,46,10.10
2017,05,18,07,47,10.10
2017,05,18,07,48,10.20
2017,05,18,07,49,10.30
2017,05,18,07,50,10.40
2017,05,18,07,51,10.40
2017,05,18,07,52,10.40
2017,05,18,07,53,10.40
2017,05,18,07,54,10.40
2017,05,18,07,55,10.50
2017,05,18,07,56,10.60
2017,05,18,07,57,10.60
2017,05,18,07,58,10.70
2017,05,18,07,59,10.80
2017,05,18,08,00,10.90
2017,05,18,08,01,11.00
2017,05,18,08,02,11.10
2017,05,18,08,03,11.10
2017,05,18,08,04,11.20
2017,05,18,08,05,11.20
2017,05,18,08,06,11.20
2017,05,18,08,07,11.20
2017,05,18,08,08,11.30
2017,05,18,08,09,11.30
2017,05,18,08,10,11.30
2017,05,18,08,11,11.40
2017,05,18,08,12,11.40
2017,05,18,08,13,11.60
2017,05,18,08,14,11.60
2017,05,18,08,15,11.60
2017,05,18,08,16,11.60
2017,05,18,08,17,11.60
2017,05,18,08,18,11.60
2017,05,18,08,19,11.70
2017,05,18,08,20,11.70
2017,05,18,08,21,11.80
2017,05,18,08,22,11.80
2017,05,18,08,23,11.90
2017,05,18,08,24,12.00
2017,05,18,08,25,12.10
2017,05,18,08,26,12.20
2017,05,18,08,27,12.10
2017,05,18,08,28,12.00
2017,05,18,08,29,11.90
2017,05,18,08,30,11.80
2017,05,18,08,31,11.70
2017,05,18,08,32,11.60
2017,05,18,08,33,11.60
2017,05,18,08,34,11.50
2017,05,18,08,35,11.40
2017,05,18,08,36,11.40
2017,05,18,08,37,11.50
2017,05,18,08,38,11.60
2017,05,18,08,39,11.70
2017,05,18,08,40,11.70
2017,05,18,08,41,11.80
2017,05,18,08,42,11.80
2017,05,18,08,43,11.90
2017,05,18,08,44,11.90
2017,05,18,08,45,12.00
2017,05,18,08,46,12.00
2017,05,18,08,47,12.10
2017,05,18,08,48,12.30
2017,05,18,08,49,12.30
2017,05,18,08,50,12.40
2017,05,18,08,51,12.40
2017,05,18,08,52,12.40
2017,05,18,08,53,12.40
2017,05,18,08,54,12.30
2017,05,18,08,55,12.20
2017,05,18,08,56,12.20
2017,05,18,08,57,12.20
2017,05,18,08,58,12.20
2017,05,18,08,59,12.20
2017,05,18,09,00,12.20
2017,05,18,09,01,12.10
2017,05,18,09,02,12.10
2017,05,18,09,03,12.00
2017,05,18,09,04,11.90
2017,05,18,09,05,11.90
2017,05,18,09,06,11.80
2017,05,18,09,07,11.80
2017,05,18,09,08,11.80
2017,05,18,09,09,11.60
2017,05,18,09,10,11.60
2017,05,18,09,11,11.50
2017,05,18,09,12,11.40
2017,05,18,09,13,11.40
2017,05,18,09,14,11.50
2017,05,18,09,15,11.60
2017,05,18,09,16,11.60
2017,05,18,09,17,11.70
2017,05,18,09,18,11.70
2017,05,18,09,19,11.70
2017,05,18,09,20,11.70
2017,05,18,09,21,11.60
2017,05,18,09,22,11.60
2017,05,18,09,23,11.60
2017,05,18,09,24,11.60
2017,05,18,09,25,11.60
2017,05,18,09,26,11.60
2017,05,18,09,27,11.60
2017,05,18,09,28,11.70
2017,05,18,09,29,11.70
2017,05,18,09,30,11.80
2017,05,18,09,31,11.80
2017,05,18,09,32,11.80
2017,05,18,09,33,11.80
2017,05,18,09,34,11.70
2017,05,18,09,35,11.60
2017,05,18,09,36,11.70
2017,05,18,09,37,11.60
2017,05,18,09,38,11.60
2017,05,18,09,39,11.60
2017,05,18,09,40,11.60
2017,05,18,09,41,11.60
2017,05,18,09,42,11.60
2017,05,18,09,43,11.60
2017,05,18,09,44,11.60
2017,05,18,09,45,11.60
2017,05,18,09,46,11.60
2017,05,18,09,47,11.60
2017,05,18,09,48,11.60
2017,05,18,09,49,11.60
2017,05,18,09,50,11.60
2017,05,18,09,51,11.60
2017,05,18,09,52,11.60
2017,05,18,09,53,11.60
2017,05,18,09,54,11.60
2017,05,18,09,55,11.60
2017,05,18,09,56,11.60
2017,05,18,09,57,11.60
2017,05,18,09,58,11.60
2017,05,18,09,59,11.60
2017,05,18,10,00,11.60
2017,05,18,10,01,11.70
2017,05,18,10,02,11.70
2017,05,18,10,03,11.70
2017,05,18,10,04,11.70
2017,05,18,10,05,11.80
2017,05,18,10,06,11.80
2017,05,18,10,07,11.80
2017,05,18,10,08,11.70
2017,05,18,10,09,11.70
2017,05,18,10,10,11.70
2017,05,18,10,11,11.60
2017,05,18,10,12,11.60
2017,05,18,10,13,11.60
2017,05,18,10,14,11.70
2017,05,18,10,15,11.80
2017,05,18,10,16,11.80
2017,05,18,10,17,11.90
2017,05,18,10,18,11.90
2017,05,18,10,19,11.90
2017,05,18,10,20,11.90
2017,05,18,10,21,11.90
2017,05,18,10,22,12.00
2017,05,18,10,23,12.10
2017,05,18,10,24,12.20
2017,05,18,10,25,12.20
2017,05,18,10,26,12.10
2017,05,18,10,27,12.10
2017,05,18,10,28,12.00
2017,05,18,10,29,12.00
2017,05,18,10,30,12.00
2017,05,18,10,31,11.90
2017,05,18,10,32,11.90
2017,05,18,10,33,11.90
2017,05,18,10,34,11.90
2017,05,18,10,35,11.90
2017,05,18,10,36,12.10
2017,05,18,10,37,12.10
2017,05,18,10,38,12.10
2017,05,18,10,39,12.20
2017,05,18,10,40,12.20
2017,05,18,10,41,12.10
2017,05,18,10,42,12.10
2017,05,18,10,43,12.00
2017,05,18,10,44,12.00
2017,05,18,10,45,11.90
2017,05,18,10,46,11.90
2017,05,18,10,47,11.80
2017,05,18,10,48,11.80
2017,05,18,10,49,11.90
2017,05,18,10,50,11.90
2017,05,18,10,51,12.00
2017,05,18,10,52,12.10
2017,05,18,10,53,12.10
2017,05,18,10,54,12.10
2017,05,18,10,55,12.10
2017,05,18,10,56,12.10
2017,05,18,10,57,12.10
2017,05,18,10,58,12.00
2017,05,18,10,59,12.10
2017,05,18,11,00,12.10
2017,05,18,11,01,12.10
2017,05,18,11,02,12.10
2017,05,18,11,03,12.10
2017,05,18,11,04,12.10
2017,05,18,11,05,12.10
2017,05,18,11,06,12.20
2017,05,18,11,07,12.20
2017,05,18,11,08,12.10
2017,05,18,11,09,12.00
2017,05,18,11,10,11.90
2017,05,18,11,11,11.90
2017,05,18,11,12,11.90
2017,05,18,11,13,12.00
2017,05,18,11,14,12.00
2017,05,18,11,15,12.10
2017,05,18,11,16,12.00
2017,05,18,11,17,12.00
2017,05,18,11,18,12.00
2017,05,18,11,19,12.00
2017,05,18,11,20,12.10
2017,05,18,11,21,12.10
2017,05,18,11,22,12.10
2017,05,18,11,23,12.10
2017,05,18,11,24,12.10
2017,05,18,11,25,12.30
2017,05,18,11,26,12.30
2017,05,18,11,27,12.30
2017,05,18,11,28,12.30
2017,05,18,11,29,12.40
2017,05,18,11,30,12.50
2017,05,18,11,31,12.60
2017,05,18,11,32,12.60
2017,05,18,11,33,12.70
2017,05,18,11,34,12.60
2017,05,18,11,35,12.60
2017,05,18,11,36,12.60
2017,05,18,11,37,12.60
2017,05,18,11,38,12.60
2017,05,18,11,39,12.60
2017,05,18,11,40,12.80
2017,05,18,11,41,12.80
2017,05,18,11,42,12.80
2017,05,18,11,43,12.80
2017,05,18,11,44,12.80
2017,05,18,11,45,12.80
2017,05,18,11,46,12.90
2017,05,18,11,47,12.90
2017,05,18,11,48,13.00
2017,05,18,11,49,13.00
2017,05,18,11,50,13.10
2017,05,18,11,51,13.00
2017,05,18,11,52,13.00
2017,05,18,11,53,13.00
2017,05,18,11,54,13.00
2017,05,18,11,55,13.00
2017,05,18,11,56,13.00
2017,05,18,11,57,13.10
2017,05,18,11,58,13.10
2017,05,18,11,59,13.10
2017,05,18,12,00,13.10
2017,05,18,12,01,13.00
2017,05,18,12,02,13.00
2017,05,18,12,03,13.00
2017,05,18,12,04,13.00
2017,05,18,12,05,13.00
2017,05,18,12,06,13.00
2017,05,18,12,07,12.90
2017,05,18,12,08,12.90
2017,05,18,12,09,12.80
2017,05,18,12,10,12.80
2017,05,18,12,11,12.80
2017,05,18,12,12,12.90
2017,05,18,12,13,12.90
2017,05,18,12,14,13.00
2017,05,18,12,15,13.00
2017,05,18,12,16,13.00
2017,05,18,12,17,13.00
2017,05,18,12,18,13.10
2017,05,18,12,19,13.10
2017,05,18,12,20,13.10
2017,05,18,12,21,13.20
2017,05,18,12,22,13.30
2017,05,18,12,23,13.30
2017,05,18,12,24,13.30
2017,05,18,12,25,13.40
2017,05,18,12,26,13.40
2017,05,18,12,27,13.40
2017,05,18,12,28,13.30
2017,05,18,12,29,13.20
2017,05,18,12,30,13.20
2017,05,18,12,31,13.10
2017,05,18,12,32,13.00
2017,05,18,12,33,12.90
2017,05,18,12,34,12.90
2017,05,18,12,35,12.80
2017,05,18,12,36,12.70
2017,05,18,12,37,12.70
2017,05,18,12,38,12.70
2017,05,18,12,39,12.60
2017,05,18,12,40,12.60
2017,05,18,12,41,12.70
2017,05,18,12,42,12.70
2017,05,18,12,43,12.60
2017,05,18,12,44,12.60
2017,05,18,12,45,12.60
2017,05,18,12,46,12.60
2017,05,18,12,47,12.60
2017,05,18,12,48,12.60
2017,05,18,12,49,12.70
2017,05,18,12,50,12.70
2017,05,18,12,51,12.80
2017,05,18,12,52,12.80
2017,05,18,12,53,12.80
2017,05,18,12,54,12.70
2017,05,18,12,55,12.60
2017,05,18,12,56,12.60
2017,05,18,12,57,12.60
2017,05,18,12,58,12.60
2017,05,18,12,59,12.60
2017,05,18,13,00,12.70
2017,05,18,13,01,12.80
2017,05,18,13,02,12.90
2017,05,18,13,03,13.00
2017,05,18,13,04,13.00
2017,05,18,13,05,13.10
2017,05,18,13,06,13.10
2017,05,18,13,07,13.10
2017,05,18,13,08,13.10
2017,05,18,13,09,13.00
2017,05,18,13,10,12.90
2017,05,18,13,11,12.90
2017,05,18,13,12,12.90
2017,05,18,13,13,12.90
2017,05,18,13,14,12.80
2017,05,18,13,15,12.80
2017,05,18,13,16,12.80
2017,05,18,13,17,12.80
2017,05,18,13,18,12.80
2017,05,18,13,19,12.80
2017,05,18,13,20,12.80
2017,05,18,13,21,12.80
2017,05,18,13,22,12.90
2017,05,18,13,23,12.80
2017,05,18,13,24,12.90
2017,05,18,13,25,12.90
2017,05,18,13,26,13.00
2017,05,18,13,27,13.00
2017,05,18,13,28,13.00
2017,05,18,13,29,13.10
2017,05,18,13,30,13.10
2017,05,18,13,31,13.10
2017,05,18,13,32,13.20
2017,05,18,13,33,13.20
2017,05,18,13,34,13.30
2017,05,18,13,35,13.30
2017,05,18,13,36,13.50
2017,05,18,13,37,13.50
2017,05,18,13,38,13.60
2017,05,18,13,39,13.70
2017,05,18,13,40,13.70
2017,05,18,13,41,13.70
2017,05,18,13,42,13.80
2017,05,18,13,43,13.90
2017,05,18,13,44,13.90
2017,05,18,13,45,13.90
2017,05,18,13,46,13.80
2017,05,18,13,47,13.80
2017,05,18,13,48,13.70
2017,05,18,13,49,13.70
2017,05,18,13,50,13.70
2017,05,18,13,51,13.70
2017,05,18,13,52,13.70
2017,05,18,13,53,13.60
2017,05,18,13,54,13.60
2017,05,18,13,55,13.60
2017,05,18,13,56,13.50
2017,05,18,13,57,13.50
2017,05,18,13,58,13.50
2017,05,18,13,59,13.50
2017,05,18,14,00,13.50
2017,05,18,14,01,13.60
2017,05,18,14,02,13.60
2017,05,18,14,03,13.50
2017,05,18,14,04,13.40
2017,05,18,14,05,13.40
2017,05,18,14,06,13.30
2017,05,18,14,07,13.30
2017,05,18,14,08,13.30
2017,05,18,14,09,13.40
2017,05,18,14,10,13.40
2017,05,18,14,11,13.40
2017,05,18,14,12,13.50
2017,05,18,14,13,13.50
2017,05,18,14,14,13.50
2017,05,18,14,15,13.40
2017,05,18,14,16,13.30
2017,05,18,14,17,13.30
2017,05,18,14,18,13.20
2017,05,18,14,19,13.20
2017,05,18,14,20,13.20
2017,05,18,14,21,13.30
2017,05,18,14,22,13.30
2017,05,18,14,23,13.30
2017,05,18,14,24,13.20
2017,05,18,14,25,13.20
2017,05,18,14,26,13.20
2017,05,18,14,27,13.20
2017,05,18,14,28,13.30
2017,05,18,14,29,13.30
2017,05,18,14,30,13.30
2017,05,18,14,31,13.40
2017,05,18,14,32,13.50
2017,05,18,14,33,13.50
2017,05,18,14,34,13.60
2017,05,18,14,35,13.50
2017,05,18,14,36,13.50
2017,05,18,14,37,13.40
2017,05,18,14,38,13.40
2017,05,18,14,39,13.30
2017,05,18,14,40,13.40
2017,05,18,14,41,13.40
2017,05,18,14,42,13.40
2017,05,18,14,43,13.40
2017,05,18,14,44,13.50
2017,05,18,14,45,13.50
2017,05,18,14,46,13.50
2017,05,18,14,47,13.50
2017,05,18,14,48,13.50
2017,05,18,14,49,13.50
2017,05,18,14,50,13.40
2017,05,18,14,51,13.40
2017,05,18,14,52,13.40
2017,05,18,14,53,13.40
2017,05,18,14,54,13.40
2017,05,18,14,55,13.50
2017,05,18,14,56,13.50
2017,05,18,14,57,13.50
2017,05,18,14,58,13.50
2017,05,18,14,59,13.50
2017,05,18,15,00,13.60
2017,05,18,15,01,13.60
2017,05,18,15,02,13.60
2017,05,18,15,03,13.50
2017,05,18,15,04,13.50
2017,05,18,15,05,13.60
2017,05,18,15,06,13.60
2017,05,18,15,07,13.60
2017,05,18,15,08,13.60
2017,05,18,15,09,13.60
2017,05,18,15,10,13.50
2017,05,18,15,11,13.50
2017,05,18,15,12,13.60
2017,05,18,15,13,13.50
2017,05,18,15,14,13.60
2017,05,18,15,15,13.70
2017,05,18,15,16,13.70
2017,05,18,15,17,13.70
2017,05,18,15,18,13.80
2017,05,18,15,19,13.70
2017,05,18,15,20,13.80
2017,05,18,15,21,13.80
2017,05,18,15,22,13.80
2017,05,18,15,23,13.80
2017,05,18,15,24,13.80
2017,05,18,15,25,13.70
2017,05,18,15,26,13.80
2017,05,18,15,27,13.70
2017,05,18,15,28,13.70
2017,05,18,15,29,13.70
2017,05,18,15,30,13.70
2017,05,18,15,31,13.70
2017,05,18,15,32,13.70
2017,05,18,15,33,13.80
2017,05,18,15,34,13.90
2017,05,18,15,35,13.90
2017,05,18,15,36,14.10
2017,05,18,15,37,14.20
2017,05,18,15,38,14.20
2017,05,18,15,39,14.20
2017,05,18,15,40,14.20
2017,05,18,15,41,14.30
2017,05,18,15,42,14.30
2017,05,18,15,43,14.40
2017,05,18,15,44,14.50
2017,05,18,15,45,14.60
2017,05,18,15,46,14.60
2017,05,18,15,47,14.60
2017,05,18,15,48,14.60
2017,05,18,15,49,14.80
2017,05,18,15,50,14.90
2017,05,18,15,51,14.90
2017,05,18,15,52,15.00
2017,05,18,15,53,15.00
2017,05,18,15,54,15.00
2017,05,18,15,55,14.90
2017,05,18,15,56,14.90
2017,05,18,15,57,15.00
2017,05,18,15,58,14.90
2017,05,18,15,59,15.00
2017,05,18,16,00,15.00
2017,05,18,16,01,15.00
2017,05,18,16,02,14.90
2017,05,18,16,03,14.80
2017,05,18,16,04,14.80
2017,05,18,16,05,14.80
2017,05,18,16,06,14.80
2017,05,18,16,07,14.80
2017,05,18,16,08,14.80
2017,05,18,16,09,14.80
2017,05,18,16,10,14.80
2017,05,18,16,11,14.80
2017,05,18,16,12,14.80
2017,05,18,16,13,14.90
2017,05,18,16,14,14.90
2017,05,18,16,15,14.80
2017,05,18,16,16,14.80
2017,05,18,16,17,14.80
2017,05,18,16,18,14.80
2017,05,18,16,19,14.70
2017,05,18,16,20,14.70
2017,05,18,16,21,14.70
2017,05,18,16,22,14.70
2017,05,18,16,23,14.60
2017,05,18,16,24,14.60
2017,05,18,16,25,14.50
2017,05,18,16,26,14.50
2017,05,18,16,27,14.50
2017,05,18,16,28,14.50
2017,05,18,16,29,14.50
2017,05,18,16,30,14.60
2017,05,18,16,31,14.60
2017,05,18,16,32,14.70
2017,05,18,16,33,14.80
2017,05,18,16,34,14.80
2017,05,18,16,35,14.80
2017,05,18,16,36,14.80
2017,05,18,16,37,14.80
2017,05,18,16,38,14.70
2017,05,18,16,39,14.50
2017,05,18,16,40,14.50
2017,05,18,16,41,14.40
2017,05,18,16,42,14.40
2017,05,18,16,43,14.40
2017,05,18,16,44,14.50
2017,05,18,16,45,14.50
2017,05,18,16,46,14.50
2017,05,18,16,47,14.40
2017,05,18,16,48,14.40
2017,05,18,16,49,14.40
2017,05,18,16,50,14.40
2017,05,18,16,51,14.50
2017,05,18,16,52,14.50
2017,05,18,16,53,14.50
2017,05,18,16,54,14.50
2017,05,18,16,55,14.40
2017,05,18,16,56,14.40
2017,05,18,16,57,14.40
2017,05,18,16,58,14.40
2017,05,18,16,59,14.50
2017,05,18,17,00,14.40
2017,05,18,17,01,14.40
2017,05,18,17,02,14.40
2017,05,18,17,03,14.50
2017,05,18,17,04,14.50
2017,05,18,17,05,14.50
2017,05,18,17,06,14.50
2017,05,18,17,07,14.40
2017,05,18,17,08,14.40
2017,05,18,17,09,14.50
2017,05,18,17,10,14.50
2017,05,18,17,11,14.50
2017,05,18,17,12,14.50
2017,05,18,17,13,14.50
2017,05,18,17,14,14.50
2017,05,18,17,15,14.60
2017,05,18,17,16,14.60
2017,05,18,17,17,14.70
2017,05,18,17,18,14.70
2017,05,18,17,19,14.80
2017,05,18,17,20,14.90
2017,05,18,17,21,15.00
2017,05,18,17,22,15.00
2017,05,18,17,23,15.00
2017,05,18,17,24,15.10
2017,05,18,17,25,15.10
2017,05,18,17,26,15.10
2017,05,18,17,27,15.10
2017,05,18,17,28,15.20
2017,05,18,17,29,15.20
2017,05,18,17,30,15.20
2017,05,18,17,31,15.10
2017,05,18,17,32,15.10
2017,05,18,17,33,15.00